Location: Beekmeers
(50.8953°N, 3.6968°E)
Time: 00:52:32
(UTC+00:00)

ISS - Visible Passes

Search period start: 14 July 2024 00:00
Search period end: 24 July 2024 00:00
Orbit: 410 x 424 km, 51.6° (Epoch: 13 July)

Date Brightness Start Highest point End Pass type
(mag) Time Alt. Az. Time Alt. Az. Time Alt. Az.
14 Jul -2.0 01:03:33 10° W 01:04:49 19° WSW 01:04:49 19° WSW visible
14 Jul -3.8 21:01:33 10° WSW 21:04:53 89° S 21:08:13 10° E visible
14 Jul -3.8 22:38:23 10° W 22:41:43 82° N 22:44:29 14° E visible
15 Jul -2.7 00:15:12 10° W 00:17:20 30° WSW 00:17:20 30° WSW visible
15 Jul -3.7 21:50:05 10° W 21:53:24 76° N 21:56:44 10° E visible
15 Jul -3.8 23:26:52 10° W 23:30:06 55° SSW 23:30:06 55° SSW visible
16 Jul -3.6 21:01:43 10° W 21:05:02 76° N 21:08:23 10° E visible
16 Jul -3.9 22:38:31 10° WNW 22:41:50 73° SSW 22:43:01 37° ESE visible
17 Jul -1.2 00:15:38 10° W 00:15:52 11° W 00:15:52 11° W visible
17 Jul -3.9 21:50:08 10° WNW 21:53:28 89° S 21:55:58 17° ESE visible
17 Jul -2.2 23:27:02 10° W 23:28:49 23° WSW 23:28:49 23° WSW visible
18 Jul -3.7 21:01:43 10° W 21:05:02 81° N 21:08:22 10° E visible
18 Jul -3.4 22:38:31 10° W 22:41:41 42° SSW 22:41:48 42° SSW visible
19 Jul -3.7 21:50:01 10° W 21:53:17 58° SSW 21:54:47 28° SE visible
19 Jul -1.1 23:27:30 10° WSW 23:27:39 11° WSW 23:27:39 11° WSW visible
20 Jul -3.8 21:01:29 10° WNW 21:04:48 75° SSW 21:07:47 12° ESE visible
20 Jul -2.1 22:38:33 10° W 22:40:39 21° SW 22:40:39 21° SW visible
21 Jul -2.8 21:49:48 10° W 21:52:47 31° SSW 21:53:39 27° S visible
22 Jul -3.2 21:01:06 10° W 21:04:18 44° SSW 21:06:38 16° SE visible
23 Jul -1.8 21:49:50 10° W 21:51:58 16° SW 21:52:30 16° SSW visible
